Location: Hoover
(45.1124°N, 103.2678°W)
Time: 03:11:45
(UTC+00:00)

N. Korean satellite - Pass Details

Date: 02 December 2020
Orbit: 453 x 502 km, 97.2° (Epoch: 16 January)

Event Time Altitude Azimuth Distance (km) Brightness Sun altitude
Rises 11:33:18 0° 27° (NNE) 2,570 10.5 -27.5°
Reaches altitude 10° 11:35:48 10° 45° (NE) 1,691 9.8 -27.0°
Maximum altitude 11:38:31 20° 93° (E) 1,212 9.3 -26.5°
Drops below altitude 10° 11:41:14 10° 142° (SE) 1,696 9.8 -26.1°
Sets 11:43:44 0° 160° (SSE) 2,579 10.6 -25.6°
